Regional Weather Roundup
Issued by NWS Cleveland, OH

Home | Current Version | Previous Version | Graphics & Text | Print | Product List | Glossary On
Versions: 1 2 3 4 5 6 7 8 9 10 11 12 13 14 15 16 17 18 19 20 21 22 23 24 25 26 27 28 29 30 31 32 33 34 35 36 37 38 39 40 41 42 43 44 45 46 47 48 49 50
000
ASUS41 KCLE 170302
RWRCLE
OHIO REGIONAL WEATHER ROUNDUP
NATIONAL WEATHER SERVICE CLEVELAND, OH
1000 PM EST TUE JAN 16 2018

NOTE: "FAIR" INDICATES FEW OR NO CLOUDS BELOW 12,000 FEET WITH NO
SIGNIFICANT WEATHER AND/OR OBSTRUCTIONS TO VISIBILITY.

OHZ001>008-015>018-024>027-034-035-043-044-170400-
   NORTHWEST OHIO

CITY           SKY/WX    TMP DP  RH WIND       PRES   REMARKS
DEFIANCE       FAIR       1  -3  83 SW5       30.51S WCI  -9
FINDLAY        FLURRIES   6  -2  69 W10       30.49S WCI  -9
TOLEDO EXPRESS FAIR       2  -1  88 SW8       30.50R WCI -12
TOLEDO EXEC    FAIR       2  -3  80 SW9       30.51R WCI -13
LIMA           CLOUDY     6   1  80 W10       30.49S WCI  -9
$$

OHZ009>014-019>023-028>033-038-089-170400-
   NORTHEAST OHIO

CITY           SKY/WX    TMP DP  RH WIND       PRES   REMARKS
CLE-HOPKINS    FAIR       4  -2  76 SW8       30.50S WCI  -9
CLE-LAKEFRONT  FAIR       5  -2  72 SW13      30.49S WCI -12
CUY CO. ARPT   PTCLDY     7   1  78 SW17      30.47S WCI -12
LORAIN-ELYRIA  MOCLDY     0  -7  72 SW8       30.49R WCI -14
ASHTABULA      CLOUDY    11   5  77 SW5       30.43S WCI   3
AKRON-CANTON   FAIR       4  -2  76 CALM      30.44S
WOOSTER        MOCLDY     2  -2  83 W6        30.46S WCI  -9
MANSFIELD      FAIR       1  -3  83 SW8       30.44F WCI -13
YOUNGSTOWN     FLURRIES   6   1  80 SW6       30.42R WCI  -4
$$

OHZ042-051>053-060>062-070>072-077>081-170400-
  SOUTHWEST OHIO

CITY           SKY/WX    TMP DP  RH WIND       PRES   REMARKS
CINC-COVINGTON CLOUDY     8   3  80 W7        30.55R WCI  -3
CINC-LUNKEN    CLOUDY    10   2  69 W9        30.61R WCI  -3
HAMILTON       CLOUDY     9   2  73 W7        30.59R WCI  -2
DAYTON         MOCLDY     0  -3  87 W6        30.51F WCI -12
WRIGHT-PAT AFB MOCLDY     5  -3  67 W5        30.52F WCI  -4
DAYTON GENERAL CLOUDY     7   0  73 W8        30.52S WCI  -6
WILMINGTON     CLOUDY     7   1  76 W9        30.51S WCI  -7
$$

OHZ036-037-039>041-045>050-054>059-063>069-073>076-082>088-170400-
  CENTRAL AND SOUTHEAST OHIO

CITY           SKY/WX    TMP DP  RH WIND       PRES   REMARKS
COLUMBUS       FLURRIES   7   2  80 NW10      30.53R WCI  -8
OSU AIRPORT    CLOUDY     6   1  80 W10       30.51S WCI  -9
BOLTON FIELD   FLURRIES   6   1  79 W3        30.53S
RICKENBACK AFB CLOUDY     6   1  77 W5        30.53S WCI  -3
NEWARK         CLOUDY     7   0  73 SW6       30.51R WCI  -3
MARION         CLOUDY     2  -3  80 W6        30.50S WCI  -9
LANCASTER      CLOUDY     7   1  76 W5        30.53R WCI  -2
ZANESVILLE     CLOUDY     6  -1  73 SW3       30.51R
NEW PHILLY     NOT AVBL
$$




USA.gov is the U.S. government's official web portal to all federal, state and local government web resources and services.